Flag for Luxembourg Weather past 2 weeks in Differdange, Luxembourg

Now
21 °F

Clear.


Feels Like: 11 °F
Forecast: 15 / 35 °F
Wind: 9 mph from Northeast

Location: Luxembourg Airport

Current Time: Dec 28, 2014 at 10:42:56 PM

Latest Report: Dec 28, 2014 at 9:50 PM


Visibility: 10 mi

Pressure: 30.48 "Hg

Humidity: 80%

Dew point: 16 °F

Location of DifferdangeLocation

Historic Weather in Differdange — Graph

°F

Differdange temperature yesterday

Maximum temperature yesterday: 34 °F (at 12:20 AM)
Minimum temperature yesterday: 28 °F (at 10:50 PM)
Average temperature yesterday: 32 °F

Past Weeks' High & Low Weather Summary

 TemperatureHumidityPressure
High52 °F (Dec 18, 10:50 AM)100% (Dec 13, 9:20 PM)30.48 "Hg (Dec 13, 9:20 PM)
Low21 °F (Dec 28, 7:20 PM)54% (Dec 28, 12:50 PM)29.27 "Hg (Dec 27, 1:50 PM)
Average39 °F95%30.07 "Hg
* Reported Dec 13 9:20 PM — Dec 28 9:20 PM, Differdange, Weather by CustomWeather, © 2014

Note: Actual official high and low records may vary slightly from our data, if they occured in-between our weather recording intervals... More about our weather records

Advertising

Differdange weather history for previous 24 hours

 ConditionsComfort  
Time TempWeatherWind HumidityBarometerVisibility
9:20 PM
Dec 28
21 °FClear.10 mph80%30.45 "Hg10 mi
8:50 PM21 °FClear.10 mph80%30.42 "Hg10 mi
8:20 PM21 °FPassing clouds.10 mph80%30.42 "HgN/A
7:50 PM21 °FClear.10 mph80%30.39 "Hg10 mi
7:20 PM21 °FClear.10 mph80%30.39 "Hg10 mi
6:50 PM23 °FClear.14 mph74%30.36 "Hg10 mi
6:20 PM23 °FClear.12 mph74%30.33 "Hg10 mi
5:50 PM23 °FClear.14 mph74%30.33 "Hg10 mi
5:20 PM25 °FClear.15 mph63%30.30 "Hg10 mi
4:50 PM25 °FClear.13 mph63%30.30 "Hg10 mi
4:20 PM25 °FSunny.10 mph63%30.27 "Hg10 mi
3:50 PM25 °FSunny.14 mph59%30.24 "Hg10 mi
3:20 PM27 °FSunny.16 mph54%30.24 "Hg10 mi
2:50 PM25 °FSunny.16 mph54%30.21 "Hg10 mi
2:20 PM25 °FPassing clouds.17 mph54%30.18 "HgN/A
1:50 PM25 °FSunny.18 mph54%30.15 "Hg10 mi
1:20 PM25 °FSunny.17 mph54%30.15 "Hg10 mi
12:50 PM25 °FSunny.20 mph54%30.12 "Hg10 mi
12:20 PM25 °FSunny.20 mph59%30.12 "Hg10 mi
11:50 AM25 °FSunny.20 mph63%30.09 "Hg10 mi
11:20 AM23 °FSunny.21 mph74%30.07 "Hg10 mi
10:50 AM23 °FPassing clouds.23 mph74%30.04 "HgN/A
10:20 AM23 °FScattered clouds.21 mph80%30.04 "HgN/A
9:50 AM23 °FPartly sunny.21 mph80%30.01 "HgN/A
9:20 AM23 °FPartly sunny.21 mph80%29.98 "HgN/A
8:50 AM23 °FPartly sunny.21 mph80%29.95 "HgN/A
8:20 AM23 °FPassing clouds.21 mph80%29.92 "HgN/A
7:50 AM23 °FPassing clouds.22 mph80%29.89 "HgN/A
7:20 AM23 °FPassing clouds.18 mph86%29.86 "HgN/A
6:50 AM25 °FPassing clouds.20 mph80%29.83 "HgN/A
6:20 AM25 °FPassing clouds.23 mph93%29.80 "HgN/A
5:50 AM25 °FPassing clouds.23 mph93%29.77 "HgN/A
5:20 AM27 °FPassing clouds.23 mph93%29.74 "HgN/A
4:20 AM27 °FPassing clouds.22 mph100%29.71 "Hg5 mi
3:50 AM27 °FPartly cloudy.18 mph100%29.68 "Hg5 mi
3:20 AM27 °FChilly.18 mph100%29.65 "HgN/A
2:50 AM27 °FChilly.18 mph100%29.65 "HgN/A
2:20 AM27 °FChilly.17 mph100%29.62 "HgN/A
1:50 AM28 °FPartly cloudy.17 mph93%29.59 "Hg6 mi
1:20 AM28 °FPartly cloudy.17 mph100%29.56 "Hg5 mi
12:50 AM28 °FPartly cloudy.20 mph100%29.56 "Hg5 mi
12:20 AM28 °FPartly cloudy.17 mph100%29.53 "Hg5 mi
11:50 PM
Dec 27
28 °FLight snow. Partly cloudy.16 mph100%29.50 "Hg5 mi
11:20 PM28 °FLight snow. Partly cloudy.18 mph100%29.50 "Hg3 mi
10:50 PM28 °FLight snow. Partly cloudy.17 mph100%29.47 "Hg3 mi
10:20 PM30 °FLight snow. Partly cloudy.16 mph100%29.47 "Hg2 mi
Weather by CustomWeather, © 2014

See weather overviewHow to use our weather pages